Meteo Giornale » Osservazioni meteo Italia » Napoli-Capodichino

ore: 15:50 - Osservazioni Meteo Napoli-Capodichino
Lat. 40° 51' N Lon. 14° 18' E Alt. 88 metri s.l.m.

nuvoloso Europe/Rome

27 °C

Nuvoloso

Temp. 24 Ore

21 °C

28 °C

Sud/Sud-Ovest

9.3 Km/h

Dew point 19 °C

Umidità 61 %

Visibilità  10 Km

Il sole sorge alle ore 06:48

Il sole tramonta alle ore 19:03

Data e Ora Cielo e Fenomeni T °C DP °C Um. % Pres. hPa Vis. km Vento km/h
Oggi h: 15:50 nuvoloso Nuvoloso 27 19 61 1015 10 S/SO 9.3
Oggi h: 15:20 nuvoloso Nuvoloso 27 19 61 1015 10 S/SO 11.1
Oggi h: 14:50 nuvoloso Nuvoloso 27 19 61 1015 10 S 11.1
Oggi h: 14:20 nuvoloso Nuvoloso 27 19 61 1015 10 S/SO 9.3
Oggi h: 13:50 nuvoloso Nuvoloso 27 19 61 1015 10 S/SO 9.3
Oggi h: 13:20 nuvoloso Nuvoloso 27 19 61 1015 10 S/SO 9.3
Oggi h: 12:50 nuvoloso Nuvoloso 27 18 57 1016 10 S/SO 9.3
Oggi h: 12:20 nuvoloso Nuvoloso 28 16 48 1016 10 S/SO 9.3
Oggi h: 11:50 poco_nuvoloso Poco Nuvoloso 28 16 48 1016 10 N 5.5
Oggi h: 11:20 poco_nuvoloso Poco Nuvoloso 28 16 48 1016 10 N 5.5
Oggi h: 10:50 sereno Sereno 27 17 54 1016 10 N 1.8
Oggi h: 10:20 sereno Sereno 27 17 54 1016 10 N 1.8
Oggi h: 09:50 sereno Sereno 26 18 61 1016 10 N 3.7
Oggi h: 09:20 sereno Sereno 25 17 61 1015 10 NE 7.4
Oggi h: 08:50 sereno Sereno 24 17 64 1015 10 N/NE 9.3
Oggi h: 08:20 sereno Sereno 23 17 68 1015 10 N 5.5
Oggi h: 07:50 sereno Sereno 23 17 68 1015 10 N 7.4
Oggi h: 07:20 poco_nuvoloso Poco Nuvoloso 21 17 77 1014 10 N 7.4
Oggi h: 06:50 nuvoloso Nuvoloso 21 17 77 1015 10 N 7.4
Oggi h: 06:20 nuvoloso Nuvoloso 21 17 77 1014 10 N 9.3
Oggi h: 05:50 nuvoloso Nuvoloso 21 17 77 1015 10 N 9.3
Oggi h: 04:50 nuvoloso Nuvoloso 23 17 68 1015 10 N 5.5
Oggi h: 04:20 nuvoloso Nuvoloso 23 17 68 1015 10 N 3.7
Oggi h: 03:50 nuvoloso Nuvoloso 22 17 73 1015 10 N 3.7
Oggi h: 03:20 nuvoloso Nuvoloso 23 17 68 1015 10 N 5.5
Oggi h: 02:50 nuvoloso Nuvoloso 23 18 73 1016 10 N 3.7
Oggi h: 02:20 nuvoloso Nuvoloso 23 18 73 1016 10 N 5.5
Oggi h: 01:50 nuvoloso Nuvoloso 23 18 73 1016 10 N 5.5
Oggi h: 01:20 nuvoloso Nuvoloso 23 18 73 1016 10 N 3.7
Oggi h: 00:50 nuvoloso Nuvoloso 23 18 73 1016 10 N 3.7
Oggi h: 00:20 nuvoloso Nuvoloso 23 18 73 1016 10 N 3.7
Ieri h: 23:50 nuvoloso Nuvoloso 23 18 73 1016 10 N 3.7
Ieri h: 23:20 nuvoloso Nuvoloso 23 18 73 1016 10 N 5.5
Ieri h: 22:50 nuvoloso Nuvoloso 23 18 73 1016 10 N 5.5
Ieri h: 22:20 nuvoloso Nuvoloso 23 18 73 1016 10 N/NO 7.4
Ieri h: 21:50 nuvoloso Nuvoloso 23 18 73 1016 10 N 7.4
Ieri h: 21:20 nuvoloso Nuvoloso 24 19 73 1016 10 N 9.3
Ieri h: 20:50 nuvoloso Nuvoloso 23 19 78 1016 10 N 7.4
Ieri h: 20:20 nuvoloso Nuvoloso 23 19 78 1016 10 N/NE 11.1
Ieri h: 19:50 molto_nuvoloso Molto Nuvoloso 24 18 69 1016 10 N/NE 11.1
Ieri h: 19:20 molto_nuvoloso Molto Nuvoloso 25 17 61 1016 10 N/NE 13
Ieri h: 18:50 molto_nuvoloso Molto Nuvoloso 25 16 57 1016 10 N/NE 16.7
Ieri h: 18:20 molto_nuvoloso Molto Nuvoloso 27 16 50 1016 10 N 3.7
Ieri h: 17:50 molto_nuvoloso Molto Nuvoloso 28 17 51 1015 10 S 11.1
Ieri h: 17:20 nuvoloso Nuvoloso 28 19 58 1015 10 S 11.1
Ieri h: 16:50 nuvoloso Nuvoloso 28 18 54 1015 10 S 11.1